Content
SEND FEEDBACK

Daily
Averages
Monthly
Summary
United States of America

ST. LOUIS - SAINT LOUIS UNIVERSITY, MISSOURI


Home > North America > United States > Missouri
Elevation: 177 meters     Latitude: 38 38N     Longitude: 090 14W

WEATHER
 
SELECT A DAY
Number of Records: 189,112;   Date Range: 1/1/95 - 10/22/14
 
SHARE

PRINT THIS DATA

[ ← Previous Day ]
WEATHER ALMANAC - 21 FEBRUARY, 2013
[ Next Day → ]
[ °F ]   °C
Weather ElementAverageHighLow
Temperature-2.7 °C0 °C (9:53 pm)-6.7 °C (1:53 am)
Dewpoint-5.5 °C-1 °C (10:24 pm)-10 °C (1:53 am)
Humidity81.7 %93 % (1:40 pm)66 % (7:53 am)
Barometer1017.9 hPa1027.4 hPa (1:53 am)1010.5 hPa (10:24 pm)
Wind Speed20.6 km/h44.4 km/h (3:53 pm)
Wind Gust57.5 km/h (3:59 pm)
Weather ElementAverage
Visibility7.7 km
Wind DirectionENE (83.8 °)

Weather ElementTotal
Precipitation19.05 mm
Heating Degree Days21.7 (Base 18.3)
Averaged from 42 records on 21 February, 2013
WEATHER CONDITIONS BREAKOUT
WIND DIRECTION BREAKOUT
WEATHER BY HOUR - 21 FEBRUARY, 2013
[ °F ]   °C
Local TimeTemperatureDewpointHumidityBarometerVisibilityWind DirectionWind SpeedGust SpeedPrecipitationEventsConditions
1:53 AM-6.7 °C-10 °C78 %1027.4 hPa16.1 kmNE (50°)5.6 km/hClear
2:53 AM-6.1 °C-9.4 °C78 %1026.8 hPa16.1 kmCalmMostly Cloudy
3:53 AM-5 °C-9.4 °C72 %1026.1 hPa16.1 kmNE (40°)7.4 km/hOvercast
4:53 AM-5 °C-8.9 °C74 %1024.4 hPa16.1 kmEast (90°)16.7 km/hOvercast
5:53 AM-4.4 °C-8.9 °C71 %1025.4 hPa16.1 kmESE (110°)13 km/hOvercast
6:53 AM-3.9 °C-8.9 °C69 %1023.7 hPa16.1 kmENE (70°)16.7 km/hOvercast
7:53 AM-3.3 °C-8.9 °C66 %1025.4 hPa16.1 kmEast (90°)20.4 km/hOvercast
8:53 AM-3.3 °C-8.9 °C66 %1024.4 hPa16.1 kmEast (90°)22.2 km/hOvercast
9:53 AM-3.3 °C-8.9 °C66 %1023.4 hPa16.1 kmEast (90°)22.2 km/hOvercast
10:24 AM-3 °C-8 °C69 %1020.3 hPa2.9 kmEast (90°)25.9 km/h40.7 km/h0.25 mmSnowLight Snow
10:33 AM-3 °C-7 °C74 %1020 hPa4.8 kmEast (80°)29.6 km/h37 km/h0.51 mmOvercast
10:48 AM-3 °C-7 °C74 %1020.3 hPa12.9 kmEast (90°)16.7 km/h38.9 km/h0.76 mmRainLight Freezing Rain
10:53 AM-3.3 °C-6.7 °C78 %1021.7 hPa14.5 kmENE (70°)13 km/h33.3 km/h0.76 mmRainLight Freezing Rain
11:15 AM-3 °C-7 °C74 %1020 hPa12.9 kmEast (90°)24.1 km/h0 mmSnowLight Snow
11:22 AM-3 °C-7 °C74 %1019 hPa2.9 kmEast (80°)31.5 km/h0 mmSnowLight Snow
11:34 AM-3 °C-6 °C80 %1019.6 hPa1.6 kmEast (100°)22.2 km/h0 mmSnowLight Snow
11:42 AM-3 °C-6 °C80 %1018.3 hPa0.8 kmEast (90°)37 km/h44.4 km/h0.25 mmSnowSnow
11:53 AM-3.3 °C-6.1 °C81 %1018.6 hPa1.6 kmEast (80°)25.9 km/h37 km/h0.25 mmSnowLight Snow
12:53 PM-3.3 °C-5.6 °C84 %1020 hPa1.6 kmNE (40°)16.7 km/h1.27 mmSnowLight Snow
1:03 PM-3 °C-5 °C86 %1020 hPa0.8 kmNE (40°)14.8 km/h0.51 mmFog-SnowSnow
1:22 PM-4 °C-6 °C86 %1019.6 hPa0.3 kmNNE (30°)20.4 km/h1.02 mmFog-SnowSnow
1:40 PM-4 °C-5 °C93 %1020.3 hPa0.3 kmNE (40°)13 km/h1.78 mmFog-SnowSnow
1:51 PM-4 °C-5 °C93 %1020 hPa0.8 kmNE (40°)18.5 km/h2.03 mmFog-SnowSnow
1:53 PM-3.9 °C-5.6 °C88 %1020.7 hPa0.3 kmNE (40°)16.7 km/h2.29 mmFog-SnowSnow
3:11 PM-3 °C-5 °C86 %1015.6 hPa0.8 kmENE (70°)29.6 km/h1.02 mmFog-SnowLight Snow
3:36 PM-3 °C-6 °C80 %1013.9 hPa2.9 kmEast (80°)37 km/h53.8 km/h1.27 mmOvercast
3:44 PM-3 °C-5 °C86 %1013.5 hPa2.9 kmEast (80°)37 km/h48.1 km/h1.27 mmOvercast
3:53 PM-2.8 °C-5 °C85 %1013.9 hPa2.9 kmEast (80°)44.4 km/h55.5 km/h1.27 mmOvercast
3:59 PM-3 °C-5 °C86 %1013.5 hPa4.8 kmEast (90°)31.5 km/h57.5 km/h0 mmOvercast
4:23 PM-2 °C-4 °C86 %1013.2 hPa6.4 kmEast (90°)37 km/h50.1 km/h0.25 mmRainLight Freezing Rain
4:53 PM-1.7 °C-4.4 °C82 %1012.9 hPa12.9 kmEast (100°)27.8 km/h48.1 km/h0.51 mmRainLight Freezing Rain
5:53 PM-1.1 °C-3.3 °C85 %1012.9 hPa8 kmESE (120°)29.6 km/h40.7 km/h0.51 mmLight Freezing Drizzle
6:53 PM-0.6 °C-2.8 °C85 %1011.9 hPa9.7 kmESE (120°)20.4 km/h29.6 km/h0.51 mmRainLight Freezing Rain
7:40 PM-1 °C-3 °C86 %1011.9 hPa14.5 kmSE (130°)22.2 km/h35.2 km/h0 mmOvercast
7:53 PM-0.6 °C-2.8 °C85 %1011.9 hPa16.1 kmESE (120°)18.5 km/h0 mmOvercast
8:53 PM-0.6 °C-2.2 °C89 %1011.9 hPa6.4 kmSE (140°)14.8 km/hOvercast
8:57 PM-1 °C-2 °C93 %1011.5 hPa4.8 kmSE (130°)14.8 km/h0 mmRainLight Freezing Rain
9:07 PM-1 °C-2 °C93 %1011.5 hPa3.2 kmSE (140°)14.8 km/h0.25 mmRainLight Freezing Rain
9:53 PM0 °C-1.1 °C92 %1011.5 hPa4 kmSE (140°)11.1 km/h0.51 mmRainLight Freezing Rain
10:24 PM0 °C-1 °C93 %1010.5 hPa4.8 kmSE (130°)11.1 km/h0 mmRainLight Freezing Rain
10:53 PM0 °C-1.1 °C92 %1010.8 hPa8 kmSE (130°)13 km/h0 mmOvercast
11:53 PM0 °C-1.1 °C92 %1010.8 hPa4.8 kmCalmOvercast
Hourly data recorded from KCPS, located 0 kilometers away from St. Louis - Saint Louis University, Missouri







STORIES FROM OUR PARTNERS